Tracking 35055 objects as of 19-Aug-2026
HD Live streaming from Space Station
objects crossing your sky now

PEGASUS DEB


PEGASUS DEB is no longer on orbit


NORAD ID: 23982
Int'l Code: 1994-029AC
Launch date: May 19, 1994
Source: United States (US)
Launch site: AIR FORCE WESTERN TEST RANGE (AFWTR)
Decay date: 2001-01-21

Note: This is SATELLITE DEBRIS
Your satellite tracking list
Your tracking list is empty




NASA's NSSDC Master Catalog

Two Line Element Set (TLE):
1 23982U 94029AC  01020.40892797 +.07613956 +95514-1 +44703-1 0  9998
2 23982 082.6156 002.0172 0023565 201.8362 158.2027 15.84466229229240
Source of the keplerian elements: AFSPC